Location: Torrance
(33.8360°N, 118.3400°W)
Time: 16:04:04
(UTC-08:00)

Hubble Space Telescope - Visible Passes

Search period start: 26 February 2020 00:00
Search period end: 07 March 2020 00:00
Orbit: 536 x 540 km, 28.5° (Epoch: 26 February)

Date Brightness Start Highest point End Pass type
(mag) Time Alt. Az. Time Alt. Az. Time Alt. Az.
26 Feb 2.1 19:29:01 10° WSW 19:32:35 28° SSW 19:32:55 28° S visible
27 Feb 2.4 19:18:29 10° WSW 19:21:53 25° SSW 19:23:02 22° SSE visible
28 Feb 2.7 19:07:59 10° WSW 19:11:11 21° SSW 19:13:13 15° SSE visible
29 Feb 3.0 18:57:35 10° WSW 19:00:27 18° SSW 19:03:20 10° SSE visible
01 Mar 3.3 18:47:17 10° WSW 18:49:43 15° SSW 18:52:09 10° SSE visible
02 Mar 3.4 18:37:15 10° SW 18:38:59 12° SSW 18:40:43 10° S visible
